Location: St. Louis
(38.6270°N, 90.1994°W)
Time: 08:22:14
(UTC-05:00)

COSMOS 2251 DEB - Pass Details

Date: 11 July 2022
Orbit: 573 x 629 km, 74.1° (Epoch: 16 August)

Event Time Altitude Azimuth Distance (km) Brightness Sun altitude
Exits shadow 04:49:00 - 180° (S) 2,657 ? -10.0°
Reaches altitude 10° 04:50:55 10° 175° (S) 1,903 ? -9.7°
Maximum altitude 04:54:56 43° 103° (ESE) 835 ? -9.1°
Drops below altitude 10° 04:59:04 10° 32° (NNE) 1,952 ? -8.5°
Sets 05:01:24 0° 26° (NNE) 2,870 ? -8.1°
